Weather History for Rogers, AR

Change the Weather History Date:

Thursday, July 11, 2013

  Actual Average Record
Temperature  
Mean Temperature 84 °F -  
Max Temperature 95 °F 83 °F 100 °F (2011)
Min Temperature 72 °F 66 °F 60 °F (1996)
Cooling Degree Days 18    
Growing Degree Days 34 (Base 50)    
Moisture  
Dew Point 65 °F    
Average Humidity 59    
Maximum Humidity 87    
Minimum Humidity 32    
Precipitation  
Precipitation 0.00 in - - ()
Sea Level Pressure  
Sea Level Pressure 29.98 in    
Wind  
Wind Speed 5 mph (ENE)    
Max Wind Speed 13 mph    
Max Gust Speed 41 mph    
Visibility 10 miles    
Events      
Averages and records for this station are not official NWS values.
T = Trace of Precipitation, MM = Missing Value Source: NWS Daily Summary

Daily Weather History Graph

Daily Weather History Graph

Search for Another Location

Airport:

Trip Planner

Search our weather history database for the weather conditions in past years. The results will help you decide how hot, cold, wet, or windy it might be!

Date:

Astronomy

Jul. 11, 2013 Rise Set
Actual Time 6:07 AM CDT 8:35 PM CDT
Civil Twilight 5:37 AM CDT 9:05 PM CDT
Nautical Twilight 5:01 AM CDT 9:42 PM CDT
Astronomical Twilight 4:20 AM CDT 10:23 PM CDT
Moon 9:20 AM CDT (7/11) 10:24 PM CDT (7/11)
Length of Visible Light 15h 27m
Length of Day
14h 27m
Waxing Crescent, 11% of the Moon is Illuminated
Jul 11
Waxing Crescent
Jul 15
First Quarter
Jul 22
Full
Jul 29
Last Quarter
Aug 6
New

Hourly Weather History & Observations

Time (CDT) Temp. Heat Index Dew Point Humidity Pressure Visibility Wind Dir Wind Speed Gust Speed Precip Events Conditions
12:57 AM 75.0 °F - 69.1 °F 82% 29.98 in 10.0 mi NW 3.5 mph - N/A   Clear
1:57 AM 75.0 °F - 69.1 °F 82% 29.99 in 10.0 mi NW 3.5 mph - N/A   Partly Cloudy
2:57 AM 73.9 °F - 68.0 °F 82% 29.99 in 10.0 mi Calm Calm - N/A   Clear
3:57 AM 73.0 °F - 68.0 °F 84% 29.99 in 10.0 mi South 3.5 mph - N/A   Clear
4:57 AM 73.0 °F - 68.0 °F 84% 29.99 in 10.0 mi Calm Calm - N/A   Clear
5:57 AM 72.0 °F - 68.0 °F 87% 29.98 in 10.0 mi SSE 3.5 mph - N/A   Clear
6:57 AM 73.9 °F - 68.0 °F 82% 29.99 in 10.0 mi NE 3.5 mph - N/A   Clear
7:57 AM 77.0 °F - 70.0 °F 79% 30.00 in 10.0 mi ENE 4.6 mph - N/A   Clear
8:57 AM 81.0 °F 84.4 °F 70.0 °F 69% 30.01 in 10.0 mi ENE 8.1 mph - N/A   Clear
9:57 AM 84.0 °F 89.6 °F 72.0 °F 67% 30.00 in 10.0 mi East 9.2 mph - N/A   Clear
10:57 AM 84.9 °F 90.1 °F 71.1 °F 63% 30.01 in 10.0 mi ESE 8.1 mph - N/A   Clear
11:57 AM 89.1 °F 95.0 °F 71.1 °F 55% 30.00 in 10.0 mi East 8.1 mph - N/A   Scattered Clouds
12:57 PM 90.0 °F 96.4 °F 71.1 °F 54% 30.00 in 10.0 mi East 8.1 mph - N/A   Mostly Cloudy
1:57 PM 91.0 °F 93.0 °F 64.9 °F 42% 29.99 in 10.0 mi ENE 6.9 mph - N/A   Partly Cloudy
2:57 PM 93.0 °F 93.8 °F 62.1 °F 36% 29.99 in 10.0 mi NE 8.1 mph - N/A   Mostly Cloudy
3:57 PM 95.0 °F 95.2 °F 61.0 °F 32% 29.97 in 10.0 mi North 8.1 mph - N/A   Clear
4:57 PM 93.9 °F 94.0 °F 61.0 °F 33% 29.95 in 10.0 mi North 12.7 mph 41.4 mph N/A   Clear
5:57 PM 91.9 °F 90.8 °F 57.9 °F 32% 29.94 in 10.0 mi NE 10.4 mph - N/A   Clear
6:57 PM 91.9 °F 91.2 °F 59.0 °F 33% 29.93 in 10.0 mi NNE 9.2 mph - N/A   Clear
7:57 PM 89.1 °F 88.2 °F 59.0 °F 36% 29.93 in 10.0 mi NE 9.2 mph - N/A   Clear
8:57 PM 82.0 °F 83.0 °F 62.1 °F 51% 29.95 in 10.0 mi NE 8.1 mph - N/A   Clear
9:57 PM 81.0 °F 81.9 °F 62.1 °F 52% 29.97 in 10.0 mi ENE 5.8 mph - N/A   Clear
10:57 PM 80.1 °F 80.7 °F 59.0 °F 48% 29.97 in 10.0 mi ENE 8.1 mph - N/A   Clear
11:57 PM 80.1 °F 80.4 °F 57.0 °F 45% 29.98 in 10.0 mi East 9.2 mph - N/A   Clear